User: anonymous   Login
Location: Antioch Baptist Church
(32.6696°N, 85.7327°W)
Time: 11:44:59
(UTC+00:00)
Language:

Cosmos 2344 - Orbit

View from above orbital plane
View from above orbital plane
View from above satellite
View from above satellite

Ground track
Ground track

The orbit data is extracted from the following two-line orbital elements,

1 24827U 97028A   20262.94558310 -.00000182 +00000-0 -16685-2 0  9997
2 24827 063.3138 119.7359 1028116 043.1226 044.9289 11.07918719942185
Epoch (UTC): 18 September 2020 22:41:38
Eccentricity: 0.1028116
inclination: 63.3138°
perigee height: 1247 km
apogee height: 2995 km
right ascension of ascending node: 119.7359°
argument of perigee: 43.1226°
revolutions per day: 11.07918719
mean anomaly at epoch: 44.9289°
orbit number at epoch: 94218

The dashed part of the orbit path shows where the satellite is in the earth's shadow,  

DLR